GW5279 Weather Reports


time (UTC)temp
C
wind
direction
speed
KPH
gust
KPH
rain 1hr
cm
rain 24hr
cm
rain mn
cm
humidity
%
barometer
mb
20260508034103 5 206 0.0 1.6 0.00 0.00 0.00 89 1016.7
20260508033601 5 206 0.0 0.0 0.00 0.00 0.00 88 1016.7
20260508033059 5 206 0.0 0.0 0.00 0.00 0.00 87 1016.7
20260508032555 5 206 0.0 1.6 0.00 0.00 0.00 86 1016.8
20260508032053 5 207 0.0 0.0 0.00 0.00 0.00 86 1016.7
20260508031550 5 207 0.0 0.0 0.00 0.00 0.00 85 1016.8
20260508031045 5 207 0.0 1.6 0.00 0.00 0.00 84 1016.7
20260508030542 6 207 0.0 0.0 0.00 0.00 0.00 83 1016.7
20260508030040 6 207 0.0 0.0 0.00 0.00 0.00 81 1016.6
20260508025536 6 207 0.0 0.0 0.00 0.00 0.00 80 1016.5
20260508025033 7 207 0.0 0.0 0.00 0.00 0.00 76 1016.5
20260508024529 7 207 0.0 0.0 0.00 0.00 0.00 74 1016.3
20260508024026 7 207 0.0 0.0 0.00 0.00 0.00 73 1016.4
20260508023523 8 207 0.0 1.6 0.00 0.00 0.00 69 1016.4
20260508023020 8 224 0.0 0.0 0.00 0.00 0.00 63 1016.2
20260508022516 9 224 0.0 0.0 0.00 0.00 0.00 63 1016.2
20260508022013 10 224 0.0 0.0 0.00 0.00 0.00 58 1016.1
20260508021509 10 234 0.0 0.0 0.00 0.00 0.00 55 1016.2
20260508021005 9 255 0.0 0.0 0.00 0.00 0.00 60 1016.1
20260508020503 9 255 0.0 0.0 0.00 0.00 0.00 58 1016.0
20260508015959 10 255 0.0 1.6 0.00 0.00 0.00 58 1015.8
20260508015457 9 256 0.0 1.6 0.00 0.00 0.00 57 1015.7
20260508014954 10 203 0.0 1.6 0.00 0.00 0.00 56 1015.7
20260508014451 9 226 0.0 1.6 0.00 0.00 0.00 57 1015.8
20260508013947 10 226 0.0 0.0 0.00 0.00 0.00 58 1015.5
20260508013443 10 228 0.0 0.0 0.00 0.00 0.00 54 1015.4
20260508012940 10 227 0.0 0.0 0.00 0.00 0.00 55 1015.3
20260508012437 10 260 0.0 0.0 0.00 0.00 0.00 53 1015.2
20260508011935 11 261 0.0 0.0 0.00 0.00 0.00 49 1015.2
20260508011434 11 261 0.0 1.6 0.00 0.00 0.00 49 1015.2
20260508010929 11 264 0.0 0.0 0.00 0.00 0.00 52 1015.0
20260508010427 11 264 0.0 0.0 0.00 0.00 0.00 52 1015.0
20260508005924 12 263 0.0 3.2 0.00 0.00 0.00 46 1015.0
20260508005420 12 277 1.6 11.3 0.00 0.00 0.00 46 1015.0
20260508004917 12 262 0.0 3.2 0.00 0.00 0.00 44 1015.0
20260508004413 12 285 0.0 11.3 0.00 0.00 0.00 42 1014.8
20260508003910 12 279 1.6 4.8 0.00 0.00 0.00 45 1014.8
20260508003407 12 252 6.4 6.4 0.00 0.00 0.00 41 1014.8
20260508002904 13 281 3.2 9.7 0.00 0.00 0.00 44 1014.6
20260508002400 13 261 1.6 3.2 0.00 0.00 0.00 45 1014.5
20260508001856 13 296 6.4 9.7 0.00 0.00 0.00 43 1014.5
20260508001352 13 283 4.8 6.4 0.00 0.00 0.00 44 1014.3
20260508000849 13 221 3.2 9.7 0.00 0.00 0.00 42 1014.2
20260508000345 13 288 0.0 4.8 0.00 0.00 0.00 44 1014.1
20260507235842 13 288 3.2 9.7 0.00 0.00 0.00 42 1014.0
20260507235340 13 299 1.6 12.9 0.00 0.00 0.00 44 1014.1
20260507234837 14 275 1.6 3.2 0.00 0.00 0.00 47 1014.2
20260507234333 14 284 0.0 12.9 0.00 0.00 0.00 45 1013.9
20260507233830 14 305 0.0 6.4 0.00 0.00 0.00 45 1013.9
20260507233327 14 245 4.8 11.3 0.00 0.00 0.00 41 1014.0
20260507232826 14 216 1.6 4.8 0.00 0.00 0.00 45 1013.8
20260507232321 15 306 0.0 12.9 0.00 0.00 0.00 45 1013.7
20260507231819 15 284 3.2 9.7 0.00 0.00 0.00 42 1013.7
20260507231315 15 280 1.6 12.9 0.00 0.00 0.00 44 1013.6
20260507230811 15 63 0.0 4.8 0.00 0.00 0.00 42 1013.7
20260507230309 15 317 0.0 1.6 0.00 0.00 0.00 42 1013.6
20260507225809 15 292 1.6 3.2 0.00 0.00 0.00 43 1013.7
20260507225306 15 203 0.0 1.6 0.00 0.00 0.00 42 1013.5
20260507224801 15 275 6.4 6.4 0.00 0.00 0.00 40 1013.5
20260507224258 15 265 1.6 3.2 0.00 0.00 0.00 43 1013.5
20260507223755 15 254 1.6 1.6 0.00 0.00 0.00 44 1013.5
20260507223251 16 270 0.0 3.2 0.00 0.00 0.00 45 1013.5
20260507222748 16 275 6.4 9.7 0.00 0.00 0.00 40 1013.4
20260507222244 17 279 11.3 14.5 0.00 0.00 0.00 38 1013.5
20260507221742 17 262 6.4 12.9 0.00 0.00 0.00 37 1013.5
20260507221238 16 266 3.2 4.8 0.00 0.00 0.00 40 1013.4
20260507220734 16 297 0.0 0.0 0.00 0.00 0.00 43 1013.2
20260507220233 16 225 4.8 9.7 0.00 0.00 0.00 41 1013.3
20260507215728 16 292 4.8 6.4 0.00 0.00 0.00 42 1013.2
20260507215226 17 293 4.8 11.3 0.00 0.00 0.00 39 1013.1
20260507214723 18 274 3.2 4.8 0.00 0.00 0.00 38 1012.7
20260507214220 18 334 0.0 3.2 0.00 0.00 0.00 48 1013.0
20260507213715 17 311 1.6 6.4 0.00 0.00 0.00 39 1013.0
20260507213213 16 295 1.6 3.2 0.00 0.00 0.00 48 1012.9
20260507212709 16 341 0.0 6.4 0.00 0.00 0.00 47 1012.8
20260507212206 17 344 3.2 12.9 0.00 0.00 0.00 42 1012.8
20260507211702 16 251 1.6 1.6 0.00 0.00 0.00 44 1012.8
20260507211158 17 290 1.6 4.8 0.00 0.00 0.00 47 1012.9
20260507210656 15 261 3.2 4.8 0.00 0.00 0.00 48 1012.9
20260507210152 15 274 1.6 12.9 0.00 0.00 0.00 46 1012.7
20260507205649 16 245 6.4 6.4 0.00 0.00 0.00 41 1012.7
20260507205145 16 281 4.8 9.7 0.00 0.00 0.00 46 1012.7
20260507204642 17 349 3.2 9.7 0.00 0.00 0.00 41 1012.9
20260507204140 17 0 0.0 4.8 0.00 0.00 0.00 44 1012.8
20260507203637 16 275 3.2 4.8 0.00 0.00 0.00 40 1012.7
20260507203134 17 274 4.8 9.7 0.00 0.00 0.00 44 1012.7
20260507202630 17 200 9.7 17.7 0.00 0.00 0.00 39 1012.7
20260507202126 16 289 0.0 1.6 0.00 0.00 0.00 43 1012.8
20260507201621 15 311 4.8 9.7 0.00 0.00 0.00 46 1013.0
20260507201119 16 257 6.4 6.4 0.00 0.00 0.00 42 1013.0
20260507200614 17 297 8.0 16.1 0.00 0.00 0.00 39 1012.8
20260507200111 18 348 3.2 3.2 0.00 0.00 0.00 47 1012.9
20260507195608 18 282 6.4 6.4 0.00 0.00 0.00 42 1013.0
20260507195105 18 291 1.6 4.8 0.00 0.00 0.00 48 1013.1
20260507194601 16 352 1.6 1.6 0.00 0.00 0.00 48 1013.2
20260507194057 15 285 0.0 3.2 0.00 0.00 0.00 52 1013.4
20260507193555 16 243 3.2 4.8 0.00 0.00 0.00 48 1013.5
20260507193051 16 288 4.8 11.3 0.00 0.00 0.00 49 1013.4
20260507192548 17 21 3.2 9.7 0.00 0.00 0.00 44 1013.4
20260507192045 16 44 3.2 4.8 0.00 0.00 0.00 48 1013.3
20260507191540 16 356 1.6 11.3 0.00 0.00 0.00 48 1013.5
20260507191037 17 25 3.2 6.4 0.00 0.00 0.00 44 1013.3
20260507190534 16 242 8.0 11.3 0.00 0.00 0.00 48 1013.4
20260507190033 17 289 1.6 4.8 0.00 0.00 0.00 42 1013.5
20260507185531 16 303 0.0 1.6 0.00 0.00 0.00 48 1013.5
20260507185027 16 306 0.0 16.1 0.00 0.00 0.00 48 1013.4
20260507184526 18 297 1.6 4.8 0.00 0.00 0.00 48 1013.3
20260507184023 18 25 1.6 4.8 0.00 0.00 0.00 38 1013.2
20260507183519 17 329 1.6 3.2 0.00 0.00 0.00 51 1013.4
20260507183017 16 297 0.0 3.2 0.00 0.00 0.00 45 1013.4
20260507182512 16 261 1.6 4.8 0.00 0.00 0.00 48 1013.6
20260507182008 17 310 0.0 3.2 0.00 0.00 0.00 52 1013.7
20260507181506 16 299 3.2 14.5 0.00 0.00 0.00 52 1013.5
20260507181001 17 347 3.2 12.9 0.00 0.00 0.00 45 1013.6
20260507180458 15 264 1.6 1.6 0.00 0.00 0.00 47 1013.7
20260507175954 16 28 0.0 3.2 0.00 0.00 0.00 49 1013.6
20260507175451 16 303 0.0 1.6 0.00 0.00 0.00 49 1013.8
20260507174949 15 7 0.0 3.2 0.00 0.00 0.00 46 1013.7
20260507174446 16 293 1.6 12.9 0.00 0.00 0.00 49 1013.8
20260507173943 16 251 4.8 14.5 0.00 0.00 0.00 44 1013.8
20260507173440 14 353 0.0 4.8 0.00 0.00 0.00 54 1013.8
20260507172937 15 276 6.4 6.4 0.00 0.00 0.00 49 1014.0
20260507172433 16 248 0.0 3.2 0.00 0.00 0.00 45 1013.9
20260507171930 16 249 4.8 6.4 0.00 0.00 0.00 44 1014.2
20260507171426 16 258 6.4 11.3 0.00 0.00 0.00 51 1014.2
20260507170924 16 299 0.0 1.6 0.00 0.00 0.00 52 1014.2
20260507170420 15 276 0.0 3.2 0.00 0.00 0.00 58 1014.4
20260507165916 16 292 4.8 6.4 0.00 0.00 0.00 46 1014.4
20260507165412 15 228 1.6 6.4 0.00 0.00 0.00 45 1014.5
20260507164908 16 260 3.2 4.8 0.00 0.00 0.00 45 1014.5
20260507164405 16 288 1.6 4.8 0.00 0.00 0.00 50 1014.5
20260507163903 16 285 1.6 9.7 0.00 0.00 0.00 55 1014.4
20260507163400 16 268 6.4 9.7 0.00 0.00 0.00 51 1014.3
20260507162857 16 241 1.6 3.2 0.00 0.00 0.00 44 1014.4
20260507162352 15 21 1.6 3.2 0.00 0.00 0.00 59 1014.5
20260507161849 15 233 6.4 16.1 0.00 0.00 0.00 47 1014.8
20260507161345 15 179 3.2 11.3 0.00 0.00 0.00 47 1014.7
20260507160842 15 261 9.7 12.9 0.00 0.00 0.00 51 1014.7
20260507160338 15 258 3.2 4.8 0.00 0.00 0.00 47 1014.7
20260507155834 15 265 0.0 9.7 0.00 0.00 0.00 51 1015.0
20260507155330 15 96 0.0 3.2 0.00 0.00 0.00 52 1015.0
20260507154827 15 283 12.9 14.5 0.00 0.00 0.00 48 1015.1
20260507154325 15 227 8.0 11.3 0.00 0.00 0.00 50 1015.1
20260507153821 15 156 0.0 6.4 0.00 0.00 0.00 49 1015.0
20260507153318 14 108 4.8 6.4 0.00 0.00 0.00 49 1014.9
20260507152814 14 245 3.2 9.7 0.00 0.00 0.00 51 1015.1
20260507152311 15 266 6.4 9.7 0.00 0.00 0.00 52 1015.1
20260507151806 14 132 4.8 6.4 0.00 0.00 0.00 50 1015.1
20260507151303 14 236 3.2 9.7 0.00 0.00 0.00 55 1015.1
20260507150800 15 30 1.6 3.2 0.00 0.00 0.00 52 1015.1
20260507150257 13 282 0.0 3.2 0.00 0.00 0.00 59 1015.2
20260507145753 13 241 0.0 11.3 0.00 0.00 0.00 53 1015.4
20260507145249 14 93 3.2 6.4 0.00 0.00 0.00 53 1015.3
20260507144746 13 120 3.2 4.8 0.00 0.00 0.00 51 1015.4
20260507144244 13 269 1.6 6.4 0.00 0.00 0.00 54 1015.7
20260507143740 14 294 0.0 3.2 0.00 0.00 0.00 58 1015.7
20260507143238 13 222 0.0 6.4 0.00 0.00 0.00 54 1015.8
20260507142734 15 299 0.0 1.6 0.00 0.00 0.00 60 1015.8
20260507142230 13 300 1.6 1.6 0.00 0.00 0.00 56 1016.0
20260507141727 13 291 1.6 4.8 0.00 0.00 0.00 60 1016.1
20260507141224 13 116 0.0 6.4 0.00 0.00 0.00 58 1016.1
20260507140720 13 275 1.6 6.4 0.00 0.00 0.00 62 1016.1
20260507140218 13 14 1.6 3.2 0.00 0.00 0.00 54 1016.2
20260507135714 13 271 1.6 1.6 0.00 0.00 0.00 60 1016.3
20260507135212 12 250 0.0 1.6 0.00 0.00 0.00 65 1016.3
20260507134708 12 276 3.2 4.8 0.00 0.00 0.00 63 1016.4
20260507134204 13 121 4.8 4.8 0.00 0.00 0.00 63 1016.5
20260507133700 12 84 1.6 1.6 0.00 0.00 0.00 65 1016.4
20260507133157 12 91 3.2 4.8 0.00 0.00 0.00 67 1016.6
20260507132655 12 87 0.0 4.8 0.00 0.00 0.00 67 1016.5
20260507132151 12 80 0.0 1.6 0.00 0.00 0.00 68 1016.3
20260507131648 12 80 1.6 3.2 0.00 0.00 0.00 72 1016.5
20260507131145 12 80 3.2 3.2 0.00 0.00 0.00 73 1016.5
20260507130642 11 80 3.2 4.8 0.00 0.00 0.00 69 1016.4
20260507130140 11 148 1.6 1.6 0.00 0.00 0.00 73 1016.7
20260507125638 12 150 0.0 1.6 0.00 0.00 0.00 76 1016.5
20260507125136 11 150 0.0 0.0 0.00 0.00 0.00 75 1016.7
20260507124631 11 150 0.0 1.6 0.00 0.00 0.00 74 1016.7
20260507124129 10 150 0.0 1.6 0.00 0.00 0.00 74 1016.5
20260507123628 10 150 1.6 4.8 0.00 0.00 0.00 74 1016.6
20260507123124 10 212 0.0 0.0 0.00 0.00 0.00 74 1016.6
20260507122619 10 247 0.0 0.0 0.00 0.00 0.00 81 1016.8
20260507122116 10 247 0.0 0.0 0.00 0.00 0.00 79 1016.6
20260507121612 10 247 0.0 0.0 0.00 0.00 0.00 83 1016.7
20260507121108 10 246 0.0 0.0 0.00 0.00 0.00 80 1016.6
20260507120604 10 246 0.0 0.0 0.00 0.00 0.00 82 1016.6
20260507120100 10 246 0.0 0.0 0.00 0.00 0.00 86 1016.6
20260507115557 9 246 0.0 0.0 0.00 0.00 0.00 83 1016.4
20260507115053 9 246 0.0 0.0 0.00 0.00 0.00 86 1016.4
20260507114549 9 246 0.0 0.0 0.00 0.00 0.00 88 1016.4
20260507114046 9 246 0.0 0.0 0.00 0.00 0.00 92 1016.3
20260507113543 9 246 0.0 0.0 0.00 0.00 0.00 93 1016.3
20260507113040 8 246 0.0 0.0 0.00 0.00 0.00 94 1016.3
20260507112538 8 246 0.0 0.0 0.00 0.00 0.00 94 1016.0
20260507112035 8 246 0.0 0.0 0.00 0.00 0.00 95 1016.0
20260507111532 8 246 0.0 0.0 0.00 0.00 0.00 96 1016.2
20260507111028 8 246 0.0 0.0 0.00 0.00 0.00 95 1016.1
20260507110525 8 246 0.0 0.0 0.00 0.00 0.00 96 1015.9
20260507110021 8 245 0.0 0.0 0.00 0.00 0.00 96 1016.0
20260507105519 8 245 0.0 0.0 0.00 0.00 0.00 96 1015.9
20260507105014 8 245 0.0 0.0 0.00 0.00 0.00 96 1015.8
20260507104512 8 245 0.0 0.0 0.00 0.00 0.00 95 1015.5
20260507104008 8 245 0.0 0.0 0.00 0.00 0.00 95 1015.8
20260507103505 8 245 0.0 0.0 0.00 0.00 0.00 93 1015.7
20260507103000 8 245 0.0 0.0 0.00 0.00 0.00 93 1015.7
20260507102458 8 246 0.0 0.0 0.00 0.00 0.00 92 1015.7
20260507101954 8 246 0.0 1.6 0.00 0.00 0.00 92 1015.5
20260507101449 9 255 0.0 1.6 0.00 0.00 0.00 93 1015.5
20260507100946 9 255 0.0 0.0 0.00 0.00 0.00 93 1015.2
20260507100443 9 255 0.0 0.0 0.00 0.00 0.00 90 1015.5
20260507095942 9 255 0.0 0.0 0.00 0.00 0.00 89 1015.2
20260507095439 9 255 0.0 1.6 0.00 0.00 0.00 91 1015.4
20260507094935 9 255 0.0 0.0 0.00 0.00 0.00 90 1015.4
20260507094432 9 255 0.0 0.0 0.00 0.00 0.00 90 1015.7
20260507093929 9 255 0.0 0.0 0.00 0.00 0.00 91 1015.2
20260507093427 9 255 0.0 0.0 0.00 0.00 0.00 90 1015.4
20260507092925 9 255 0.0 0.0 0.00 0.00 0.00 91 1015.4
20260507092421 9 255 0.0 0.0 0.00 0.00 0.00 90 1015.3
20260507091918 9 255 0.0 0.0 0.00 0.00 0.00 90 1015.2
20260507091414 9 255 0.0 0.0 0.00 0.00 0.00 90 1015.2
20260507090910 10 256 0.0 0.0 0.00 0.00 0.00 92 1015.1
20260507090406 9 256 0.0 0.0 0.00 0.00 0.00 91 1015.1
20260507085903 9 256 0.0 0.0 0.00 0.00 0.00 91 1015.3
20260507085400 9 256 0.0 0.0 0.00 0.00 0.00 92 1015.1
20260507084857 9 256 0.0 0.0 0.00 0.00 0.00 92 1015.1
20260507084354 9 256 0.0 1.6 0.00 0.00 0.00 92 1015.3
20260507083851 10 256 0.0 0.0 0.00 0.00 0.00 92 1015.2
20260507083347 10 256 0.0 0.0 0.00 0.00 0.00 92 1015.0
20260507082844 10 256 0.0 0.0 0.00 0.00 0.00 92 1015.1
20260507082339 10 256 0.0 0.0 0.00 0.00 0.00 92 1015.3
20260507081837 10 256 0.0 0.0 0.00 0.00 0.00 91 1015.2
20260507081332 10 256 0.0 0.0 0.00 0.00 0.00 89 1015.3
20260507080830 10 256 0.0 0.0 0.00 0.00 0.00 91 1015.2
20260507080326 10 255 0.0 0.0 0.00 0.00 0.00 90 1015.3
20260507075821 10 255 0.0 1.6 0.00 0.00 0.00 89 1015.3
20260507075317 10 255 1.6 1.6 0.00 0.00 0.00 90 1015.4
20260507074814 10 255 0.0 0.0 0.00 0.00 0.00 90 1015.4
20260507074312 10 255 0.0 0.0 0.00 0.00 0.00 90 1015.3
20260507073809 10 255 0.0 0.0 0.00 0.00 0.00 91 1015.2
20260507073305 10 255 0.0 1.6 0.00 0.00 0.00 90 1015.2
20260507072802 10 256 0.0 0.0 0.00 0.00 0.00 91 1015.3
20260507072300 10 256 0.0 0.0 0.00 0.00 0.00 93 1015.2
20260507071757 10 256 0.0 0.0 0.00 0.00 0.00 93 1015.2
20260507071253 10 256 0.0 0.0 0.00 0.00 0.00 93 1015.2
20260507070750 10 256 0.0 0.0 0.00 0.00 0.00 93 1015.3
20260507070247 10 256 0.0 0.0 0.00 0.00 0.00 94 1015.3
20260507065744 10 256 0.0 0.0 0.00 0.00 0.00 94 1015.2
20260507065241 10 256 0.0 0.0 0.00 0.00 0.00 93 1015.0
20260507064738 10 256 0.0 1.6 0.00 0.00 0.00 93 1015.1
20260507064237 10 256 0.0 0.0 0.00 0.00 0.00 94 1015.1
20260507063734 10 256 0.0 0.0 0.00 0.00 0.00 93 1015.1
20260507063231 10 256 0.0 0.0 0.00 0.00 0.00 93 1015.1
20260507062728 10 256 0.0 0.0 0.00 0.00 0.00 93 1015.1
20260507062225 10 256 0.0 0.0 0.00 0.00 0.00 91 1015.2
20260507061723 10 256 0.0 0.0 0.00 0.00 0.00 90 1015.1
20260507061220 10 256 0.0 1.6 0.00 0.00 0.00 90 1015.1
20260507060718 10 259 0.0 0.0 0.00 0.00 0.00 91 1015.2
20260507060214 10 259 0.0 1.6 0.00 0.00 0.00 91 1015.4
20260507055711 10 258 0.0 0.0 0.00 0.00 0.00 91 1015.3
20260507055207 10 255 1.6 1.6 0.00 0.00 0.00 92 1015.4
20260507054703 10 255 1.6 1.6 0.00 0.00 0.00 93 1015.2
20260507054159 10 255 0.0 0.0 0.00 0.00 0.00 93 1015.2
20260507053658 10 255 0.0 0.0 0.00 0.00 0.00 94 1015.4
20260507053155 10 255 0.0 3.2 0.00 0.00 0.00 94 1015.5
20260507052654 10 185 0.0 0.0 0.00 0.00 0.00 95 1015.5
20260507052149 10 185 0.0 0.0 0.00 0.00 0.00 95 1015.8
20260507051647 11 185 0.0 0.0 0.00 0.00 0.00 96 1015.7
20260507051144 10 185 0.0 0.0 0.00 0.00 0.00 96 1015.8
20260507050641 10 185 0.0 0.0 0.00 0.00 0.00 96 1015.7
20260507050137 10 185 0.0 0.0 0.00 0.00 0.00 98 1015.9
20260507045635 10 185 0.0 0.0 0.00 0.00 0.00 98 1015.9
20260507045131 11 185 0.0 0.0 0.00 0.00 0.00 99 1015.9
20260507044628 11 185 0.0 0.0 0.00 0.00 0.00 99 1015.9
20260507044125 11 185 0.0 0.0 0.00 0.00 0.00 99 1015.7
20260507043621 11 185 0.0 0.0 0.00 0.00 0.00 99 1015.8
20260507043118 11 186 0.0 0.0 0.00 0.00 0.00 99 1015.7
20260507042614 11 186 0.0 0.0 0.00 0.00 0.00 99 1015.5
20260507042109 11 186 0.0 0.0 0.00 0.00 0.00 99 1015.5
20260507041607 11 186 0.0 0.0 0.00 0.00 0.00 99 1015.4
20260507041103 11 186 0.0 1.6 0.00 0.00 0.00 99 1015.7
20260507040600 11 186 0.0 3.2 0.00 0.00 0.00 99 1015.4
20260507040056 11 227 0.0 0.0 0.00 1.37 1.37 99 1015.4
20260507035552 11 227 0.0 0.0 0.00 1.37 1.37 99 1015.4
20260507035049 11 227 0.0 0.0 0.00 1.37 1.37 99 1015.3
20260507034546 11 227 0.0 0.0 0.00 1.37 1.37 99 1015.2